CW7079 Weather Reports


time (UTC)temp
C
wind
direction
speed
KPH
gust
KPH
rain 1hr
cm
rain 24hr
cm
rain mn
cm
humidity
%
barometer
mb
20260508042013 5 126 0.0 3.2 0.00 0.00 0.00 92 1017.8
20260508035122 5 126 0.0 0.0 0.00 0.00 0.00 91 1017.9
20260508032208 5 126 0.0 0.0 0.00 0.00 0.00 91 1017.9
20260508025040 5 126 0.0 0.0 0.00 0.00 0.00 91 1017.8
20260508022014 5 127 0.0 0.0 0.00 0.00 0.00 91 1017.6
20260508015121 4 127 0.0 0.0 0.00 0.00 0.00 90 1017.4
20260508012002 5 126 0.0 0.0 0.00 0.00 0.00 90 1017.5
20260508005125 5 127 0.0 0.0 0.00 0.00 0.00 89 1017.7
20260508002137 6 127 0.0 0.0 0.00 0.00 0.00 88 1017.9
20260507235118 6 126 0.0 0.0 0.00 0.00 0.00 88 1017.9
20260507232052 6 127 0.0 0.0 0.00 0.00 0.00 86 1018.1
20260507225142 7 127 0.0 0.0 0.00 0.00 0.00 86 1018.2
20260507222257 7 127 0.0 1.6 0.00 0.00 0.00 85 1018.2
20260507215159 8 126 1.6 4.8 0.00 0.00 0.00 84 1018.3
20260507212054 8 127 3.2 6.4 0.00 0.00 0.00 84 1017.9
20260507205109 8 128 1.6 3.2 0.00 0.00 0.00 82 1018.0
20260507202013 9 128 1.6 3.2 0.00 0.00 0.00 80 1017.7
20260507191813 11 128 6.4 16.1 0.00 0.00 0.00 75 1017.1
20260507184752 12 125 6.4 16.1 0.00 0.00 0.00 72 1016.9
20260507181657 13 123 9.7 19.3 0.00 0.00 0.00 69 1016.8
20260507174543 13 135 9.7 22.5 0.00 0.00 0.00 67 1016.5
20260507171544 14 118 9.7 19.3 0.00 0.00 0.00 67 1016.5
20260507164708 14 129 8.0 17.7 0.00 0.00 0.00 63 1016.6
20260507154603 15 128 3.2 8.0 0.00 0.00 0.00 64 1016.8
20260507144434 12 128 0.0 0.0 0.00 0.00 0.00 69 1016.9
20260507141448 12 128 0.0 0.0 0.00 0.00 0.00 70 1017.3
20260507134431 13 128 0.0 4.8 0.00 0.00 0.00 67 1017.2
20260507121149 14 134 3.2 11.3 0.00 0.00 0.00 60 1017.3
20260507111056 13 111 4.8 14.5 0.00 0.00 0.00 66 1017.4
20260507104036 13 105 0.0 6.4 0.00 0.00 0.00 66 1017.5
20260507101149 13 96 1.6 9.7 0.00 0.00 0.00 65 1017.6
20260507094027 13 121 1.6 11.3 0.00 0.00 0.00 67 1017.7
20260507091107 13 111 1.6 11.3 0.00 0.00 0.00 70 1017.5
20260507084030 11 111 3.2 3.2 0.00 0.00 0.00 75 1017.8
20260507081044 11 111 6.4 14.5 0.00 0.00 0.00 74 1017.6
20260507074017 11 78 4.8 12.9 0.00 0.00 0.00 77 1017.6
20260507070858 10 50 1.6 6.4 0.00 0.00 0.00 84 1017.5
20260507063847 8 50 1.6 6.4 0.00 0.00 0.00 90 1017.4
20260507060933 7 50 0.0 0.0 0.00 0.00 0.00 92 1017.4
20260507054048 3 50 0.0 0.0 0.00 0.00 0.00 91 1017.4
20260507051044 3 50 0.0 0.0 0.00 0.00 0.00 90 1017.3